[[{"header":{"parameterUnit":"m.s-1","parameterCategory":1,"la1":30.2991,"la2":30.254,"lo1":-89.0895,"lo2":-89.0444,"dy":0.0017,"dx":0.0017,"nx":28,"ny":28,"refTime":"2025-04-22T21:00:00:Z","depth":0,"parameterNumber":2,"parameterNumberName":"U-component_of_WINDS"},"data":[0,0,0,0,0,0,0,0,0,0,0,0,0,0,0,0,0,0,0,0,0,0,0,0,0,0,0,0,0,0,0,0,0,0,0,0,0,0,0,0,0,0,0,0,0,0,0,0,0,0,0,0,0,0,0,0,0,0,-2.2066,-2.2066,0,-2.2074,-2.2075,-2.2075,-2.2028,-2.2026,-2.2025,-2.2024,-2.2033,-2.2035,-2.2036,0,0,0,0,0,0,0,0,0,0,0,0,0,-2.2009,-2.2011,-2.2066,-2.2066,-2.2066,-2.2074,-2.2075,-2.2075,-2.2028,-2.2026,-2.2024,-2.2023,-2.2033,-2.2035,-2.2036,0,0,0,0,0,0,0,0,0,0,0,0,0,-2.2028,-2.2011,-2.2066,-2.2044,-2.2042,-2.2074,-2.2075,-2.2075,-2.2028,-2.2026,-2.2024,-2.2022,-2.2032,-2.2034,-2.2037,-2.2091,0,0,-2.2044,-2.2045,0,0,0,0,0,0,0,0,-2.2027,-2.203,-2.2047,-2.2045,-2.2043,-2.2048,-2.2058,-2.208,-2.2029,-2.2033,-2.2024,-2.2021,-2.204,-2.2041,-2.2047,-2.2092,-2.2092,-2.2044,-2.2045,-2.2046,-2.2047,0,0,0,0,0,0,0,-2.2026,-2.2029,-2.2069,-2.2047,-2.2045,-2.2034,-2.2034,-2.2062,-2.2048,-2.2033,-2.2029,-2.2031,-2.2038,-2.2045,-2.2047,-2.2092,-2.2044,-2.2046,-2.2047,-2.2048,-2.2183,-2.2185,0,0,0,0,0,0,-2.2027,-2.2028,-2.2069,-2.2069,-2.203,-2.2036,-2.2037,-2.2048,-2.2047,-2.2045,-2.2033,-2.2029,-2.2042,-2.2045,-2.2047,-2.2111,-2.2046,-2.2048,-2.205,-2.218,-2.2183,-2.2185,0,0,0,0,0,0,-2.2026,-2.2031,-2.2069,-2.2048,-2.2052,-2.2039,-2.2053,-2.205,-2.2056,-2.2047,-2.2045,-2.2042,-2.2041,-2.2044,-2.2081,-2.2111,-2.2049,-2.2051,-2.2178,-2.2181,-2.2184,-2.224,0,0,0,0,0,0,-2.2025,-2.2031,-2.2051,-2.2049,-2.2053,-2.2102,-2.2055,-2.2051,-2.206,-2.2055,-2.2056,-2.2054,-2.204,-2.2078,-2.2083,-2.2113,-2.2053,-2.2175,-2.2179,-2.2183,-2.2235,-2.2245,-2.2253,0,0,0,0,0,-2.2023,-2.2067,-2.2053,-2.2058,-2.2078,-2.2103,-2.2106,-2.2088,-2.2063,-2.2084,-2.2078,-2.2054,-2.2107,-2.2082,-2.2088,-2.2119,-2.2173,-2.2178,-2.2183,-2.2231,-2.2243,-2.2253,0,0,0,0,0,0,-2.2073,-2.2066,-2.205,-2.2095,-2.21,-2.2095,-2.2121,-2.2101,-2.2114,-2.2109,-2.2087,-2.2087,-2.2128,-2.2127,-2.2099,-2.2172,-2.2136,-2.2142,-2.2171,-2.2182,-2.219,-2.2189,-2.2055,0,0,0,0,0,-2.209,-2.211,-2.2103,-2.2143,-2.2147,-2.2133,-2.2144,-2.213,-2.2134,-2.2136,-2.2133,-2.2139,-2.2157,-2.2169,-2.2185,-2.2235,-2.2235,-2.226,-2.2269,-2.2276,-2.2281,-2.2308,-2.2319,-2.2202,-2.2202,-2.2202,0,0,-2.2124,-2.2122,-2.2137,-2.2153,-2.2156,-2.2178,-2.2135,-2.2161,-2.2177,-2.214,-2.2174,-2.2173,-2.2178,-2.2221,-2.224,-2.2222,-2.2314,-2.2282,-2.2288,-2.2289,-2.2314,-2.2325,-2.2335,-2.2205,-2.2204,-2.2204,0,0,-2.2197,-2.2198,-2.2231,-2.2235,-2.2239,-2.223,-2.2238,-2.2237,-2.2234,-2.2268,-2.2241,-2.226,-2.2292,-2.2297,-2.2303,-2.2379,-2.2357,-2.2385,-2.243,-2.2457,-2.2466,-2.2474,-2.2501,-2.2511,-2.2391,-2.2391,-2.2391,0,-2.2238,-2.227,-2.2251,-2.2278,-2.2286,-2.2254,-2.2288,-2.2292,-2.2302,-2.2309,-2.2288,-2.2327,-2.2328,-2.2372,-2.2391,-2.2398,-2.2406,-2.2384,-2.2466,-2.2474,-2.2481,-2.2506,-2.2517,-2.2394,-2.2394,-2.2393,-2.2393,0,-2.2321,-2.2344,-2.2371,-2.238,-2.2392,-2.2422,-2.2408,-2.2422,-2.2407,-2.2401,-2.2436,-2.2436,-2.2452,-2.2462,-2.2448,-2.2504,-2.2493,-2.247,-2.2433,-2.2496,-2.2519,-2.2529,-2.2399,-2.2398,-2.2397,-2.2396,0,0,-2.2426,-2.2425,-2.2435,-2.2439,-2.2442,-2.2459,-2.2488,-2.2504,-2.2516,-2.2524,-2.2548,-2.2576,-2.2554,-2.2562,-2.2548,-2.2572,-2.2632,-2.2545,-2.2545,-2.2561,-2.2694,-2.2711,-2.2723,-2.2618,-2.2619,-2.2621,-2.2693,0,-2.2497,-2.2546,-2.253,-2.258,-2.2601,-2.2571,-2.2597,-2.2602,-2.2597,-2.2614,-2.2609,-2.2629,-2.2599,-2.2603,-2.2625,-2.262,-2.2658,-2.2614,-2.264,-2.2641,-2.2639,-2.2735,-2.2753,-2.2821,-2.2702,-2.2704,-2.2705,0,-2.2586,-2.2597,-2.265,-2.2649,-2.2657,-2.2681,-2.2693,-2.271,-2.2715,-2.271,-2.2719,-2.2701,-2.273,-2.2694,-2.2734,-2.2705,-2.2714,-2.2714,-2.2716,-2.2717,-2.2676,-2.2738,-2.2843,-2.2853,-2.2719,-2.2718,-2.2717,0,-2.2657,-2.2685,-2.272,-2.2725,-2.2725,-2.2742,-2.2743,-2.2746,-2.2757,-2.2768,-2.2775,-2.279,-2.2798,-2.281,-2.2797,-2.2771,-2.2839,-2.2801,-2.2835,-2.2836,-2.285,-2.2849,-2.2957,-2.2857,-2.2857,-2.2857,-2.2857,0,-2.2738,-2.2771,-2.2752,-2.2773,-2.281,-2.2791,-2.2828,-2.2826,-2.2829,-2.285,-2.2825,-2.2846,-2.2827,-2.2846,-2.2835,-2.287,-2.2874,-2.2871,-2.2868,-2.2873,-2.2873,-2.2878,-2.2873,-2.286,-2.2859,-2.2859,-2.2858,0,-2.2822,-2.2811,-2.2847,-2.2845,-2.2845,-2.2872,-2.287,-2.289,-2.2883,-2.291,-2.2915,-2.2905,-2.2926,-2.2914,-2.2935,-2.2929,-2.2974,-2.2964,-2.2972,-2.2969,-2.3004,-2.3001,-2.3118,-2.3133,-2.3024,-2.3025,-2.3026,0,-2.2874,-2.2899,-2.2899,-2.2911,-2.2914,-2.2934,-2.2944,-2.2927,-2.2939,-2.2947,-2.2967,-2.2985,-2.2999,-2.3034,-2.3029,-2.3045,-2.3035,-2.3076,-2.3038,-2.3042,-2.3036,-2.3034,-2.3037,-2.3083,-2.3084,-2.3085,-2.3086,0,-2.2968,-2.2961,-2.2977,-2.2991,-2.3004,-2.3015,-2.3023,-2.3034,-2.3018,-2.3032,-2.3053,-2.3064,-2.3086,-2.3105,-2.3119,-2.312,-2.3101,-2.3098,-2.3107,-2.3112,-2.3115,-2.3114,-2.2992,-2.3095,-2.3095,-2.3094,-2.3093,-2.3093,-2.3038,-2.3058,-2.3062,-2.308,-2.3085,-2.3093,-2.3112,-2.3108,-2.3125,-2.3141,-2.313,-2.3155,-2.316,-2.3177,-2.3181,-2.32,-2.3184,-2.3197,-2.32,-2.3203,-2.3208,-2.3113,-2.3203,-2.3203,-2.3202,-2.3202,-2.3202,0,-2.313,-2.3131,-2.3148,-2.316,-2.3175,-2.3155,-2.3164,-2.3178,-2.3199,-2.3206,-2.322,-2.3244,-2.3262,-2.3259,-2.3276,-2.3292,-2.3283,-2.3297,-2.3295,-2.3296,-2.3221,-2.3212,-2.3304,-2.3304,-2.3303,-2.3303,-2.3303,-2.3303,-2.318,-2.3213,-2.3207,-2.3244,-2.3244,-2.3268,-2.3274,-2.3282,-2.3287,-2.3315,-2.333,-2.3328,-2.333,-2.3347,-2.3363,-2.3362,-2.3369,-2.3386,-2.3381,-2.3311,-2.3301,-2.3292,-2.3283,-2.3388,-2.3388,-2.3454,-2.3455,-2.3455]},{"header":{"parameterUnit":"m.s-1","parameterCategory":1,"la1":30.2991,"la2":30.254,"lo1":-89.0895,"lo2":-89.0444,"dy":0.0017,"dx":0.0017,"nx":28,"ny":28,"refTime":"2025-04-22T21:00:00:Z","depth":0,"parameterNumber":3,"parameterNumberName":"V-component_of_WINDS"},"data":[0,0,0,0,0,0,0,0,0,0,0,0,0,0,0,0,0,0,0,0,0,0,0,0,0,0,0,0,0,0,0,0,0,0,0,0,0,0,0,0,0,0,0,0,0,0,0,0,0,0,0,0,0,0,0,0,0,0,2.0431,2.043,0,2.0419,2.0419,2.0419,2.0393,2.0392,2.0391,2.0391,2.0379,2.0379,2.0379,0,0,0,0,0,0,0,0,0,0,0,0,0,2.0429,2.043,2.0431,2.043,2.043,2.0419,2.0419,2.0419,2.0393,2.0392,2.0391,2.0391,2.0379,2.0379,2.0379,0,0,0,0,0,0,0,0,0,0,0,0,0,2.0425,2.043,2.0431,2.0416,2.0414,2.0419,2.0419,2.0419,2.0393,2.0392,2.0391,2.039,2.0379,2.0379,2.0379,2.0398,0,0,2.038,2.038,0,0,0,0,0,0,0,0,2.0426,2.0425,2.0418,2.0417,2.0415,2.0406,2.0414,2.0412,2.0393,2.0401,2.0391,2.039,2.0389,2.0388,2.0388,2.0397,2.0396,2.038,2.038,2.0381,2.0381,0,0,0,0,0,0,0,2.0426,2.0426,2.0426,2.0418,2.0416,2.041,2.0408,2.0414,2.04,2.04,2.0398,2.0397,2.0388,2.0388,2.0387,2.0396,2.038,2.038,2.0381,2.0381,2.042,2.0421,0,0,0,0,0,0,2.0428,2.0426,2.0426,2.0426,2.0418,2.0411,2.0409,2.041,2.0399,2.0397,2.0398,2.0396,2.0387,2.0387,2.0387,2.0408,2.038,2.0381,2.0381,2.042,2.0421,2.0422,0,0,0,0,0,0,2.0428,2.0429,2.0427,2.0425,2.0425,2.0411,2.0413,2.041,2.041,2.0398,2.0395,2.04,2.0387,2.0386,2.0395,2.0407,2.0381,2.0381,2.0419,2.042,2.0421,2.0449,0,0,0,0,0,0,2.0428,2.0429,2.0435,2.0426,2.0425,2.0436,2.0414,2.0411,2.0411,2.0408,2.0399,2.0397,2.0386,2.0395,2.0396,2.0407,2.0381,2.0417,2.0419,2.0421,2.0447,2.0452,2.0455,0,0,0,0,0,2.0429,2.0444,2.0436,2.0436,2.0433,2.0436,2.0436,2.0423,2.0412,2.0418,2.0411,2.0397,2.0406,2.0396,2.0396,2.0408,2.0417,2.0419,2.0421,2.0446,2.0451,2.0455,0,0,0,0,0,0,2.0455,2.0442,2.0433,2.0446,2.0442,2.0432,2.044,2.0429,2.0428,2.0426,2.041,2.0408,2.0419,2.0414,2.0404,2.0425,2.0409,2.0411,2.0428,2.0433,2.0436,2.0437,2.0382,0,0,0,0,0,2.0462,2.0466,2.0454,2.0466,2.0465,2.0453,2.0454,2.0444,2.044,2.0439,2.0431,2.0428,2.0429,2.0431,2.0432,2.0447,2.0445,2.0455,2.0459,2.0462,2.0464,2.0472,2.0477,2.0428,2.0428,2.0428,0,0,2.0477,2.047,2.0474,2.0472,2.0468,2.0472,2.0452,2.0457,2.046,2.0439,2.0447,2.0442,2.0437,2.0449,2.0454,2.0445,2.0477,2.0465,2.0467,2.0468,2.0475,2.0479,2.0483,2.043,2.0429,2.0429,0,0,2.0506,2.0502,2.0511,2.0508,2.0503,2.0495,2.0497,2.0489,2.0484,2.0492,2.0477,2.048,2.0484,2.0481,2.048,2.0509,2.0497,2.051,2.053,2.0538,2.0542,2.0545,2.0556,2.056,2.0512,2.0512,2.0512,0,2.0525,2.0531,2.0518,2.0524,2.0524,2.0506,2.0516,2.0513,2.0508,2.0509,2.0499,2.0504,2.0499,2.051,2.0518,2.0518,2.052,2.0511,2.0543,2.0546,2.0549,2.0559,2.0563,2.0514,2.0514,2.0514,2.0513,0,2.0555,2.0559,2.0568,2.0564,2.0565,2.0573,2.0561,2.0564,2.0554,2.0547,2.0556,2.055,2.0549,2.0552,2.0543,2.0562,2.0557,2.0545,2.0528,2.0555,2.0564,2.0568,2.0516,2.0516,2.0515,2.0515,0,0,2.0599,2.0589,2.0592,2.0591,2.0584,2.0587,2.0595,2.0595,2.0597,2.0595,2.0601,2.0605,2.0594,2.0593,2.0584,2.0591,2.0615,2.0578,2.0578,2.0585,2.0636,2.0645,2.065,2.0607,2.0608,2.0608,2.0637,0,2.0627,2.0639,2.0628,2.0642,2.0647,2.063,2.0637,2.0633,2.0627,2.063,2.0623,2.0626,2.0612,2.0611,2.0618,2.0611,2.0625,2.0609,2.0613,2.0613,2.0614,2.0654,2.0663,2.069,2.064,2.0641,2.0641,0,2.066,2.066,2.0675,2.0668,2.0669,2.0676,2.0675,2.0678,2.0674,2.0669,2.0669,2.0658,2.0665,2.0649,2.0659,2.0648,2.0649,2.0646,2.0647,2.0646,2.0628,2.0655,2.0699,2.0703,2.0647,2.0646,2.0646,0,2.0691,2.0695,2.0704,2.0703,2.0695,2.07,2.0697,2.0693,2.0694,2.0693,2.0694,2.0694,2.0694,2.0695,2.0684,2.0674,2.0696,2.0679,2.0692,2.0692,2.0697,2.0697,2.0741,2.0698,2.0698,2.0698,2.0698,0,2.0723,2.0733,2.0718,2.0724,2.0735,2.0722,2.0733,2.0728,2.0725,2.0729,2.0715,2.072,2.0706,2.0709,2.0701,2.0711,2.0711,2.0707,2.0705,2.0708,2.0709,2.0708,2.0706,2.0699,2.0699,2.0699,2.0698,0,2.0759,2.075,2.0759,2.0751,2.0749,2.0758,2.0751,2.0756,2.075,2.0756,2.0757,2.0746,2.075,2.0739,2.0741,2.0735,2.075,2.0744,2.0751,2.0749,2.0763,2.0762,2.0809,2.0814,2.0768,2.0768,2.0769,0,2.078,2.0787,2.078,2.0783,2.078,2.0784,2.0785,2.0773,2.0775,2.0772,2.0778,2.078,2.0781,2.0787,2.078,2.0781,2.0776,2.0792,2.0776,2.0779,2.0776,2.0776,2.0776,2.0795,2.0796,2.0796,2.0797,0,2.0818,2.0813,2.0815,2.0816,2.0818,2.0818,2.0817,2.0819,2.0806,2.0809,2.0813,2.0814,2.0816,2.0818,2.0818,2.0815,2.0804,2.0802,2.0805,2.0809,2.0812,2.0811,2.076,2.0801,2.0801,2.08,2.08,2.08,2.0847,2.0853,2.0849,2.0852,2.085,2.085,2.0854,2.0849,2.0851,2.0852,2.0845,2.085,2.0847,2.0846,2.0844,2.0848,2.084,2.0845,2.0846,2.0847,2.0849,2.0812,2.0848,2.0848,2.0847,2.0847,2.0847,0,2.0884,2.0881,2.0884,2.0883,2.0886,2.0875,2.0874,2.0877,2.0882,2.0879,2.0881,2.0885,2.0888,2.0881,2.0883,2.0887,2.0882,2.0888,2.0888,2.0887,2.0856,2.0853,2.0892,2.0892,2.0892,2.0892,2.0892,2.0892,2.0903,2.0913,2.0908,2.0917,2.0914,2.0919,2.0919,2.0919,2.0917,2.0922,2.0925,2.092,2.0916,2.0918,2.092,2.0918,2.0919,2.0927,2.0923,2.0894,2.0889,2.0885,2.0882,2.0927,2.0927,2.0954,2.0954,2.0954]}]]